Location: 10033 Water Well
(34.0865°N, 106.8959°W)
Time: 21:43:12
(UTC+00:00)

Cosmos 1666 Rocket - Pass Details

Date: 13 January 2026
Orbit: 598 x 624 km, 82.5° (Epoch: 11 February)

Event Time Altitude Azimuth Distance (km) Brightness Sun altitude
Rises 00:54:16 0° 355° (N) 2,910 6.8 -7.6°
Reaches altitude 10° 00:56:31 10° 356° (N) 2,001 6.0 -8.0°
Maximum altitude 01:00:57 79° 83° (E) 641 3.5 -8.9°
Drops below altitude 10° 01:05:22 10° 170° (S) 1,987 6.3 -9.7°
Sets 01:07:35 0° 172° (S) 2,887 7.1 -10.2°
